Location: Unspecified
(42.1900°N, 71.3291°W)
Time: 04:23:34
(UTC-05:00)

Okean 3 - Visible Passes

Search period start: 21 February 2018 00:00
Search period end: 03 March 2018 00:00
Orbit: 576 x 603 km, 82.5° (Epoch: 20 February)

Date Brightness Start Highest point End Pass type
(mag) Time Alt. Az. Time Alt. Az. Time Alt. Az.
21 Feb 5.4 19:11:40 10° NNW 19:15:20 30° W 19:18:59 10° SSW visible
22 Feb 6.1 19:20:12 10° NW 19:23:19 21° W 19:26:26 10° SW visible
23 Feb 3.7 17:50:26 10° N 17:54:28 45° ENE 17:58:29 10° SSE visible
23 Feb 6.7 19:29:07 10° NW 19:31:17 14° W 19:33:27 10° WSW visible
24 Feb 3.4 17:58:27 10° N 18:02:37 70° E 18:06:47 10° SSE visible
25 Feb 3.7 18:06:33 10° N 18:10:44 76° W 18:14:54 10° S visible
26 Feb 4.6 18:14:46 10° NNW 18:18:49 49° W 18:22:51 10° SSW visible
27 Feb 5.5 18:23:07 10° NNW 18:26:51 32° W 18:30:35 10° SSW visible
28 Feb 7.3 05:16:10 10° E 05:17:05 11° E 05:17:58 10° ENE visible
28 Feb 6.3 18:31:38 10° NW 18:34:51 22° W 18:38:05 10° SW visible
01 Mar 6.8 05:22:26 10° SE 05:25:01 16° E 05:27:34 10° NE visible
01 Mar 6.9 18:40:27 10° NW 18:42:49 15° W 18:45:12 10° WSW visible
02 Mar 6.3 05:29:38 10° SE 05:32:59 23° E 05:36:19 10° NE visible
